Year,Month,Day,Hour,Minute,Value (Times are PST for temperature in C)
2010,05,25,00,00,9.50
2010,05,25,00,01,9.50
2010,05,25,00,02,9.50
2010,05,25,00,03,9.50
2010,05,25,00,04,9.50
2010,05,25,00,05,9.50
2010,05,25,00,06,9.40
2010,05,25,00,07,9.40
2010,05,25,00,08,9.40
2010,05,25,00,09,9.40
2010,05,25,00,10,9.40
2010,05,25,00,11,9.40
2010,05,25,00,12,9.40
2010,05,25,00,13,9.40
2010,05,25,00,14,9.40
2010,05,25,00,15,9.40
2010,05,25,00,16,9.40
2010,05,25,00,17,9.40
2010,05,25,00,18,9.40
2010,05,25,00,19,9.40
2010,05,25,00,20,9.40
2010,05,25,00,21,9.40
2010,05,25,00,22,9.40
2010,05,25,00,23,9.40
2010,05,25,00,24,9.40
2010,05,25,00,25,9.40
2010,05,25,00,26,9.40
2010,05,25,00,27,9.40
2010,05,25,00,28,9.40
2010,05,25,00,29,9.40
2010,05,25,00,30,9.50
2010,05,25,00,31,9.40
2010,05,25,00,32,9.40
2010,05,25,00,33,9.40
2010,05,25,00,34,9.40
2010,05,25,00,35,9.40
2010,05,25,00,36,9.50
2010,05,25,00,37,9.50
2010,05,25,00,38,9.50
2010,05,25,00,39,9.50
2010,05,25,00,40,9.50
2010,05,25,00,41,9.40
2010,05,25,00,42,9.50
2010,05,25,00,43,9.40
2010,05,25,00,44,9.40
2010,05,25,00,45,9.40
2010,05,25,00,46,9.40
2010,05,25,00,47,9.40
2010,05,25,00,48,9.40
2010,05,25,00,49,9.40
2010,05,25,00,50,9.40
2010,05,25,00,51,9.40
2010,05,25,00,52,9.40
2010,05,25,00,53,9.40
2010,05,25,00,54,9.30
2010,05,25,00,55,9.30
2010,05,25,00,56,9.30
2010,05,25,00,57,9.30
2010,05,25,00,58,9.30
2010,05,25,00,59,9.30
2010,05,25,01,00,9.30
2010,05,25,01,01,9.30
2010,05,25,01,02,9.30
2010,05,25,01,03,9.20
2010,05,25,01,04,9.20
2010,05,25,01,05,9.20
2010,05,25,01,06,9.20
2010,05,25,01,07,9.20
2010,05,25,01,08,9.20
2010,05,25,01,09,9.20
2010,05,25,01,10,9.10
2010,05,25,01,11,9.10
2010,05,25,01,12,9.10
2010,05,25,01,13,9.10
2010,05,25,01,14,9.00
2010,05,25,01,15,9.00
2010,05,25,01,16,9.00
2010,05,25,01,17,9.00
2010,05,25,01,18,9.00
2010,05,25,01,19,9.00
2010,05,25,01,20,8.90
2010,05,25,01,21,8.90
2010,05,25,01,22,8.90
2010,05,25,01,23,8.90
2010,05,25,01,24,8.90
2010,05,25,01,25,8.90
2010,05,25,01,26,8.90
2010,05,25,01,27,8.90
2010,05,25,01,28,8.90
2010,05,25,01,29,8.90
2010,05,25,01,30,8.80
2010,05,25,01,31,8.80
2010,05,25,01,32,8.80
2010,05,25,01,33,8.80
2010,05,25,01,34,8.80
2010,05,25,01,35,8.80
2010,05,25,01,36,8.80
2010,05,25,01,37,8.80
2010,05,25,01,38,8.80
2010,05,25,01,39,8.80
2010,05,25,01,40,8.80
2010,05,25,01,41,8.70
2010,05,25,01,42,8.70
2010,05,25,01,43,8.70
2010,05,25,01,44,8.70
2010,05,25,01,45,8.70
2010,05,25,01,46,8.70
2010,05,25,01,47,8.70
2010,05,25,01,48,8.70
2010,05,25,01,49,8.70
2010,05,25,01,50,8.70
2010,05,25,01,51,8.60
2010,05,25,01,52,8.70
2010,05,25,01,53,8.60
2010,05,25,01,54,8.60
2010,05,25,01,55,8.60
2010,05,25,01,56,8.60
2010,05,25,01,57,8.60
2010,05,25,01,58,8.60
2010,05,25,01,59,8.60
2010,05,25,02,00,8.60
2010,05,25,02,01,8.60
2010,05,25,02,02,8.60
2010,05,25,02,03,8.60
2010,05,25,02,04,8.60
2010,05,25,02,05,8.50
2010,05,25,02,06,8.60
2010,05,25,02,07,8.60
2010,05,25,02,08,8.50
2010,05,25,02,09,8.50
2010,05,25,02,10,8.50
2010,05,25,02,11,8.50
2010,05,25,02,12,8.50
2010,05,25,02,13,8.50
2010,05,25,02,14,8.50
2010,05,25,02,15,8.50
2010,05,25,02,16,8.50
2010,05,25,02,17,8.50
2010,05,25,02,18,8.50
2010,05,25,02,19,8.40
2010,05,25,02,20,8.40
2010,05,25,02,21,8.40
2010,05,25,02,22,8.40
2010,05,25,02,23,8.50
2010,05,25,02,24,8.40
2010,05,25,02,25,8.40
2010,05,25,02,26,8.40
2010,05,25,02,27,8.40
2010,05,25,02,28,8.40
2010,05,25,02,29,8.40
2010,05,25,02,30,8.40
2010,05,25,02,31,8.40
2010,05,25,02,32,8.40
2010,05,25,02,33,8.40
2010,05,25,02,34,8.40
2010,05,25,02,35,8.40
2010,05,25,02,36,8.40
2010,05,25,02,37,8.40
2010,05,25,02,38,8.40
2010,05,25,02,39,8.40
2010,05,25,02,40,8.40
2010,05,25,02,41,8.40
2010,05,25,02,42,8.40
2010,05,25,02,43,8.40
2010,05,25,02,44,8.40
2010,05,25,02,45,8.40
2010,05,25,02,46,8.40
2010,05,25,02,47,8.40
2010,05,25,02,48,8.40
2010,05,25,02,49,8.40
2010,05,25,02,50,8.40
2010,05,25,02,51,8.40
2010,05,25,02,52,8.40
2010,05,25,02,53,8.40
2010,05,25,02,54,8.30
2010,05,25,02,55,8.40
2010,05,25,02,56,8.30
2010,05,25,02,57,8.30
2010,05,25,02,58,8.30
2010,05,25,02,59,8.30
2010,05,25,03,00,8.30
2010,05,25,03,01,8.30
2010,05,25,03,02,8.30
2010,05,25,03,06,8.30
2010,05,25,03,07,8.30
2010,05,25,03,08,8.30
2010,05,25,03,09,8.30
2010,05,25,03,10,8.30
2010,05,25,03,11,8.30
2010,05,25,03,12,8.30
2010,05,25,03,13,8.30
2010,05,25,03,14,8.30
2010,05,25,03,15,8.30
2010,05,25,03,16,8.30
2010,05,25,03,17,8.30
2010,05,25,03,18,8.30
2010,05,25,03,19,8.30
2010,05,25,03,20,8.30
2010,05,25,03,21,8.30
2010,05,25,03,22,8.30
2010,05,25,03,23,8.30
2010,05,25,03,24,8.30
2010,05,25,03,25,8.30
2010,05,25,03,26,8.30
2010,05,25,03,27,8.20
2010,05,25,03,28,8.20
2010,05,25,03,29,8.20
2010,05,25,03,30,8.20
2010,05,25,03,31,8.20
2010,05,25,03,32,8.20
2010,05,25,03,33,8.20
2010,05,25,03,34,8.20
2010,05,25,03,35,8.20
2010,05,25,03,36,8.20
2010,05,25,03,37,8.20
2010,05,25,03,38,8.20
2010,05,25,03,39,8.20
2010,05,25,03,40,8.20
2010,05,25,03,41,8.20
2010,05,25,03,42,8.20
2010,05,25,03,43,8.20
2010,05,25,03,44,8.20
2010,05,25,03,45,8.20
2010,05,25,03,46,8.20
2010,05,25,03,47,8.20
2010,05,25,03,48,8.20
2010,05,25,03,49,8.20
2010,05,25,03,50,8.20
2010,05,25,03,51,8.20
2010,05,25,03,52,8.20
2010,05,25,03,53,8.20
2010,05,25,03,54,8.20
2010,05,25,03,55,8.20
2010,05,25,03,56,8.20
2010,05,25,03,57,8.20
2010,05,25,03,58,8.20
2010,05,25,03,59,8.20
2010,05,25,04,00,8.20
2010,05,25,04,01,8.20
2010,05,25,04,02,8.20
2010,05,25,04,03,8.20
2010,05,25,04,04,8.20
2010,05,25,04,05,8.20
2010,05,25,04,06,8.20
2010,05,25,04,07,8.20
2010,05,25,04,08,8.20
2010,05,25,04,09,8.20
2010,05,25,04,10,8.20
2010,05,25,04,11,8.20
2010,05,25,04,12,8.20
2010,05,25,04,13,8.20
2010,05,25,04,14,8.20
2010,05,25,04,15,8.20
2010,05,25,04,16,8.20
2010,05,25,04,17,8.20
2010,05,25,04,18,8.20
2010,05,25,04,19,8.20
2010,05,25,04,20,8.10
2010,05,25,04,21,8.10
2010,05,25,04,22,8.10
2010,05,25,04,23,8.10
2010,05,25,04,24,8.10
2010,05,25,04,25,8.10
2010,05,25,04,26,8.10
2010,05,25,04,27,8.10
2010,05,25,04,28,8.10
2010,05,25,04,29,8.10
2010,05,25,04,30,8.10
2010,05,25,04,31,8.10
2010,05,25,04,32,8.10
2010,05,25,04,33,8.10
2010,05,25,04,34,8.10
2010,05,25,04,35,8.10
2010,05,25,04,36,8.10
2010,05,25,04,37,8.10
2010,05,25,04,38,8.10
2010,05,25,04,39,8.10
2010,05,25,04,40,8.10
2010,05,25,04,41,8.10
2010,05,25,04,42,8.10
2010,05,25,04,43,8.10
2010,05,25,04,44,8.00
2010,05,25,04,45,8.00
2010,05,25,04,46,8.00
2010,05,25,04,47,8.00
2010,05,25,04,48,8.00
2010,05,25,04,49,8.00
2010,05,25,04,50,8.00
2010,05,25,04,51,8.00
2010,05,25,04,52,8.00
2010,05,25,04,53,8.00
2010,05,25,04,54,8.00
2010,05,25,04,55,8.00
2010,05,25,04,56,8.00
2010,05,25,04,57,8.00
2010,05,25,04,58,8.00
2010,05,25,04,59,8.00
2010,05,25,05,00,8.00
2010,05,25,05,01,8.00
2010,05,25,05,02,8.00
2010,05,25,05,03,8.00
2010,05,25,05,04,8.00
2010,05,25,05,05,8.00
2010,05,25,05,06,8.00
2010,05,25,05,07,8.00
2010,05,25,05,08,8.00
2010,05,25,05,09,8.00
2010,05,25,05,10,8.00
2010,05,25,05,11,8.00
2010,05,25,05,12,8.00
2010,05,25,05,13,8.00
2010,05,25,05,14,8.00
2010,05,25,05,15,8.00
2010,05,25,05,16,8.00
2010,05,25,05,17,8.00
2010,05,25,05,18,7.90
2010,05,25,05,19,8.00
2010,05,25,05,20,8.00
2010,05,25,05,21,8.00
2010,05,25,05,22,7.90
2010,05,25,05,23,8.00
2010,05,25,05,24,7.90
2010,05,25,05,25,7.90
2010,05,25,05,26,7.90
2010,05,25,05,27,7.90
2010,05,25,05,28,7.90
2010,05,25,05,29,8.00
2010,05,25,05,30,8.00
2010,05,25,05,31,8.00
2010,05,25,05,32,8.00
2010,05,25,05,33,8.00
2010,05,25,05,34,8.00
2010,05,25,05,35,8.00
2010,05,25,05,36,8.00
2010,05,25,05,37,8.00
2010,05,25,05,38,8.00
2010,05,25,05,39,8.00
2010,05,25,05,40,7.90
2010,05,25,05,41,7.90
2010,05,25,05,42,7.90
2010,05,25,05,43,7.90
2010,05,25,05,44,7.90
2010,05,25,05,45,7.90
2010,05,25,05,46,7.90
2010,05,25,05,47,7.90
2010,05,25,05,48,7.90
2010,05,25,05,49,7.90
2010,05,25,05,50,7.90
2010,05,25,05,51,7.90
2010,05,25,05,52,7.90
2010,05,25,05,53,7.90
2010,05,25,05,54,7.90
2010,05,25,05,55,7.90
2010,05,25,05,56,7.90
2010,05,25,05,57,7.90
2010,05,25,05,58,7.90
2010,05,25,05,59,8.00
2010,05,25,06,00,7.90
2010,05,25,06,01,7.90
2010,05,25,06,02,7.90
2010,05,25,06,03,7.90
2010,05,25,06,04,7.90
2010,05,25,06,05,8.00
2010,05,25,06,06,8.00
2010,05,25,06,07,8.00
2010,05,25,06,08,8.00
2010,05,25,06,09,8.00
2010,05,25,06,10,8.10
2010,05,25,06,11,8.00
2010,05,25,06,12,8.00
2010,05,25,06,13,8.00
2010,05,25,06,14,8.00
2010,05,25,06,15,8.10
2010,05,25,06,16,8.00
2010,05,25,06,17,8.00
2010,05,25,06,18,8.00
2010,05,25,06,19,8.00
2010,05,25,06,20,8.00
2010,05,25,06,21,8.00
2010,05,25,06,22,8.00
2010,05,25,06,23,8.00
2010,05,25,06,24,8.00
2010,05,25,06,25,8.00
2010,05,25,06,26,8.00
2010,05,25,06,27,8.00
2010,05,25,06,28,8.00
2010,05,25,06,29,8.00
2010,05,25,06,30,8.00
2010,05,25,06,31,8.00
2010,05,25,06,32,8.00
2010,05,25,06,33,8.00
2010,05,25,06,34,8.00
2010,05,25,06,35,8.00
2010,05,25,06,36,8.00
2010,05,25,06,37,8.00
2010,05,25,06,38,8.00
2010,05,25,06,39,8.00
2010,05,25,06,40,8.00
2010,05,25,06,41,8.00
2010,05,25,06,42,8.10
2010,05,25,06,43,8.00
2010,05,25,06,44,8.10
2010,05,25,06,45,8.10
2010,05,25,06,46,8.10
2010,05,25,06,47,8.10
2010,05,25,06,48,8.10
2010,05,25,06,49,8.10
2010,05,25,06,50,8.10
2010,05,25,06,51,8.10
2010,05,25,06,52,8.10
2010,05,25,06,53,8.10
2010,05,25,06,54,8.10
2010,05,25,06,55,8.10
2010,05,25,06,56,8.10
2010,05,25,06,57,8.10
2010,05,25,06,58,8.10
2010,05,25,06,59,8.10
2010,05,25,07,00,8.10
2010,05,25,07,01,8.10
2010,05,25,07,02,8.10
2010,05,25,07,03,8.10
2010,05,25,07,04,8.10
2010,05,25,07,05,8.10
2010,05,25,07,06,8.10
2010,05,25,07,07,8.10
2010,05,25,07,08,8.10
2010,05,25,07,09,8.10
2010,05,25,07,10,8.10
2010,05,25,07,11,8.10
2010,05,25,07,12,8.10
2010,05,25,07,13,8.10
2010,05,25,07,14,8.10
2010,05,25,07,15,8.10
2010,05,25,07,16,8.10
2010,05,25,07,17,8.20
2010,05,25,07,18,8.20
2010,05,25,07,19,8.20
2010,05,25,07,20,8.20
2010,05,25,07,21,8.20
2010,05,25,07,22,8.20
2010,05,25,07,23,8.20
2010,05,25,07,24,8.20
2010,05,25,07,25,8.20
2010,05,25,07,26,8.20
2010,05,25,07,27,8.20
2010,05,25,07,28,8.20
2010,05,25,07,29,8.30
2010,05,25,07,30,8.30
2010,05,25,07,31,8.30
2010,05,25,07,32,8.30
2010,05,25,07,33,8.30
2010,05,25,07,34,8.30
2010,05,25,07,35,8.30
2010,05,25,07,36,8.30
2010,05,25,07,37,8.30
2010,05,25,07,38,8.30
2010,05,25,07,39,8.40
2010,05,25,07,40,8.40
2010,05,25,07,41,8.40
2010,05,25,07,42,8.40
2010,05,25,07,43,8.40
2010,05,25,07,44,8.40
2010,05,25,07,45,8.40
2010,05,25,07,46,8.40
2010,05,25,07,47,8.40
2010,05,25,07,48,8.40
2010,05,25,07,49,8.50
2010,05,25,07,50,8.50
2010,05,25,07,51,8.50
2010,05,25,07,52,8.50
2010,05,25,07,53,8.50
2010,05,25,07,54,8.50
2010,05,25,07,55,8.50
2010,05,25,07,56,8.50
2010,05,25,07,57,8.60
2010,05,25,07,58,8.60
2010,05,25,07,59,8.60
2010,05,25,08,00,8.60
2010,05,25,08,01,8.60
2010,05,25,08,02,8.60
2010,05,25,08,03,8.70
2010,05,25,08,04,8.70
2010,05,25,08,05,8.70
2010,05,25,08,06,8.70
2010,05,25,08,07,8.70
2010,05,25,08,08,8.70
2010,05,25,08,09,8.70
2010,05,25,08,10,8.70
2010,05,25,08,11,8.70
2010,05,25,08,12,8.70
2010,05,25,08,13,8.70
2010,05,25,08,14,8.70
2010,05,25,08,15,8.70
2010,05,25,08,16,8.70
2010,05,25,08,17,8.70
2010,05,25,08,18,8.70
2010,05,25,08,19,8.70
2010,05,25,08,20,8.70
2010,05,25,08,21,8.70
2010,05,25,08,22,8.70
2010,05,25,08,23,8.70
2010,05,25,08,24,8.70
2010,05,25,08,25,8.70
2010,05,25,08,26,8.70
2010,05,25,08,27,8.70
2010,05,25,08,28,8.70
2010,05,25,08,29,8.70
2010,05,25,08,30,8.70
2010,05,25,08,31,8.70
2010,05,25,08,32,8.70
2010,05,25,08,33,8.70
2010,05,25,08,34,8.70
2010,05,25,08,35,8.70
2010,05,25,08,36,8.70
2010,05,25,08,37,8.70
2010,05,25,08,38,8.70
2010,05,25,08,39,8.80
2010,05,25,08,40,8.80
2010,05,25,08,41,8.80
2010,05,25,08,42,8.80
2010,05,25,08,43,8.80
2010,05,25,08,44,8.80
2010,05,25,08,45,8.80
2010,05,25,08,46,8.80
2010,05,25,08,47,8.80
2010,05,25,08,48,8.80
2010,05,25,08,49,8.90
2010,05,25,08,50,8.90
2010,05,25,08,51,8.90
2010,05,25,08,52,8.90
2010,05,25,08,53,8.90
2010,05,25,08,54,8.90
2010,05,25,08,55,8.90
2010,05,25,08,56,8.90
2010,05,25,08,57,8.90
2010,05,25,08,58,9.00
2010,05,25,08,59,8.90
2010,05,25,09,00,8.90
2010,05,25,09,01,8.90
2010,05,25,09,02,8.90
2010,05,25,09,03,8.90
2010,05,25,09,04,8.90
2010,05,25,09,05,8.90
2010,05,25,09,06,8.90
2010,05,25,09,07,8.90
2010,05,25,09,08,8.90
2010,05,25,09,09,8.90
2010,05,25,09,10,8.90
2010,05,25,09,11,8.90
2010,05,25,09,12,8.90
2010,05,25,09,13,8.90
2010,05,25,09,14,8.90
2010,05,25,09,15,8.90
2010,05,25,09,16,8.90
2010,05,25,09,17,8.90
2010,05,25,09,18,8.90
2010,05,25,09,19,8.90
2010,05,25,09,20,9.00
2010,05,25,09,21,9.00
2010,05,25,09,22,9.10
2010,05,25,09,23,9.10
2010,05,25,09,24,9.10
2010,05,25,09,25,9.10
2010,05,25,09,26,9.10
2010,05,25,09,27,9.10
2010,05,25,09,28,9.10
2010,05,25,09,29,9.20
2010,05,25,09,30,9.20
2010,05,25,09,31,9.20
2010,05,25,09,32,9.20
2010,05,25,09,33,9.20
2010,05,25,09,34,9.20
2010,05,25,09,35,9.20
2010,05,25,09,36,9.20
2010,05,25,09,37,9.20
2010,05,25,09,38,9.20
2010,05,25,09,39,9.30
2010,05,25,09,40,9.30
2010,05,25,09,41,9.30
2010,05,25,09,42,9.30
2010,05,25,09,43,9.30
2010,05,25,09,44,9.30
2010,05,25,09,45,9.30
2010,05,25,09,46,9.30
2010,05,25,09,47,9.30
2010,05,25,09,48,9.30
2010,05,25,09,49,9.40
2010,05,25,09,50,9.40
2010,05,25,09,51,9.40
2010,05,25,09,52,9.50
2010,05,25,09,53,9.50
2010,05,25,09,54,9.60
2010,05,25,09,55,9.60
2010,05,25,09,56,9.60
2010,05,25,09,57,9.60
2010,05,25,09,58,9.70
2010,05,25,09,59,9.70
2010,05,25,10,00,9.70
2010,05,25,10,01,9.80
2010,05,25,10,02,9.80
2010,05,25,10,03,9.80
2010,05,25,10,04,9.80
2010,05,25,10,05,9.90
2010,05,25,10,06,9.90
2010,05,25,10,07,9.90
2010,05,25,10,08,9.90
2010,05,25,10,09,9.90
2010,05,25,10,10,9.90
2010,05,25,10,11,9.90
2010,05,25,10,12,9.90
2010,05,25,10,13,9.90
2010,05,25,10,14,10.00
2010,05,25,10,15,10.00
2010,05,25,10,16,10.00
2010,05,25,10,17,10.10
2010,05,25,10,18,10.10
2010,05,25,10,19,10.20
2010,05,25,10,20,10.20
2010,05,25,10,21,10.20
2010,05,25,10,22,10.20
2010,05,25,10,23,10.20
2010,05,25,10,24,10.30
2010,05,25,10,25,10.20
2010,05,25,10,26,10.20
2010,05,25,10,27,10.20
2010,05,25,10,28,10.20
2010,05,25,10,29,10.20
2010,05,25,10,30,10.20
2010,05,25,10,31,10.20
2010,05,25,10,32,10.20
2010,05,25,10,33,10.20
2010,05,25,10,34,10.30
2010,05,25,10,35,10.30
2010,05,25,10,36,10.30
2010,05,25,10,37,10.30
2010,05,25,10,38,10.40
2010,05,25,10,39,10.40
2010,05,25,10,40,10.50
2010,05,25,10,41,10.50
2010,05,25,10,42,10.60
2010,05,25,10,43,10.60
2010,05,25,10,44,10.70
2010,05,25,10,45,10.60
2010,05,25,10,46,10.60
2010,05,25,10,47,10.70
2010,05,25,10,48,10.70
2010,05,25,10,49,10.70
2010,05,25,10,50,10.70
2010,05,25,10,51,10.70
2010,05,25,10,52,10.70
2010,05,25,10,53,10.70
2010,05,25,10,54,10.70
2010,05,25,10,55,10.70
2010,05,25,10,56,10.70
2010,05,25,10,57,10.70
2010,05,25,10,58,10.80
2010,05,25,10,59,10.80
2010,05,25,11,00,10.80
2010,05,25,11,01,10.80
2010,05,25,11,02,10.80
2010,05,25,11,03,10.80
2010,05,25,11,04,10.80
2010,05,25,11,05,10.80
2010,05,25,11,06,10.80
2010,05,25,11,07,10.80
2010,05,25,11,08,10.80
2010,05,25,11,09,10.90
2010,05,25,11,10,10.90
2010,05,25,11,11,10.90
2010,05,25,11,12,10.90
2010,05,25,11,13,10.90
2010,05,25,11,14,10.90
2010,05,25,11,15,11.00
2010,05,25,11,16,11.00
2010,05,25,11,17,11.00
2010,05,25,11,18,11.00
2010,05,25,11,19,11.10
2010,05,25,11,20,11.10
2010,05,25,11,21,11.10
2010,05,25,11,22,11.10
2010,05,25,11,23,11.10
2010,05,25,11,24,11.10
2010,05,25,11,25,11.10
2010,05,25,11,26,11.10
2010,05,25,11,27,11.10
2010,05,25,11,28,11.10
2010,05,25,11,29,11.10
2010,05,25,11,30,11.10
2010,05,25,11,31,11.10
2010,05,25,11,32,11.10
2010,05,25,11,33,11.10
2010,05,25,11,34,11.10
2010,05,25,11,35,11.10
2010,05,25,11,36,11.10
2010,05,25,11,37,11.10
2010,05,25,11,38,11.20
2010,05,25,11,39,11.20
2010,05,25,11,40,11.20
2010,05,25,11,41,11.20
2010,05,25,11,42,11.30
2010,05,25,11,43,11.30
2010,05,25,11,44,11.30
2010,05,25,11,45,11.30
2010,05,25,11,46,11.30
2010,05,25,11,47,11.30
2010,05,25,11,48,11.30
2010,05,25,11,49,11.30
2010,05,25,11,50,11.40
2010,05,25,11,51,11.40
2010,05,25,11,52,11.50
2010,05,25,11,53,11.50
2010,05,25,11,54,11.50
2010,05,25,11,55,11.60
2010,05,25,11,56,11.60
2010,05,25,11,57,11.60
2010,05,25,11,58,11.70
2010,05,25,11,59,11.70
2010,05,25,12,00,11.70
2010,05,25,12,01,11.70
2010,05,25,12,02,11.70
2010,05,25,12,03,11.70
2010,05,25,12,04,11.70
2010,05,25,12,05,11.70
2010,05,25,12,06,11.70
2010,05,25,12,07,11.70
2010,05,25,12,08,11.70
2010,05,25,12,09,11.70
2010,05,25,12,10,11.70
2010,05,25,12,11,11.70
2010,05,25,12,12,11.70
2010,05,25,12,13,11.70
2010,05,25,12,14,11.70
2010,05,25,12,15,11.70
2010,05,25,12,16,11.70
2010,05,25,12,17,11.70
2010,05,25,12,18,11.80
2010,05,25,12,19,11.80
2010,05,25,12,20,11.80
2010,05,25,12,21,11.90
2010,05,25,12,22,12.00
2010,05,25,12,23,12.10
2010,05,25,12,24,12.10
2010,05,25,12,25,12.20
2010,05,25,12,26,12.30
2010,05,25,12,27,12.30
2010,05,25,12,28,12.30
2010,05,25,12,29,12.30
2010,05,25,12,30,12.30
2010,05,25,12,31,12.30
2010,05,25,12,32,12.20
2010,05,25,12,33,12.20
2010,05,25,12,34,12.20
2010,05,25,12,35,12.20
2010,05,25,12,36,12.20
2010,05,25,12,37,12.20
2010,05,25,12,38,12.20
2010,05,25,12,39,12.20
2010,05,25,12,40,12.30
2010,05,25,12,41,12.30
2010,05,25,12,42,12.40
2010,05,25,12,43,12.40
2010,05,25,12,44,12.50
2010,05,25,12,45,12.50
2010,05,25,12,46,12.50
2010,05,25,12,47,12.50
2010,05,25,12,48,12.40
2010,05,25,12,49,12.40
2010,05,25,12,50,12.40
2010,05,25,12,51,12.40
2010,05,25,12,52,12.40
2010,05,25,12,53,12.40
2010,05,25,12,54,12.50
2010,05,25,12,55,12.50
2010,05,25,12,56,12.50
2010,05,25,12,57,12.50
2010,05,25,12,58,12.50
2010,05,25,12,59,12.60
2010,05,25,13,00,12.60
2010,05,25,13,01,12.60
2010,05,25,13,02,12.60
2010,05,25,13,03,12.60
2010,05,25,13,04,12.60
2010,05,25,13,05,12.60
2010,05,25,13,06,12.50
2010,05,25,13,07,12.50
2010,05,25,13,08,12.50
2010,05,25,13,09,12.60
2010,05,25,13,10,12.60
2010,05,25,13,11,12.60
2010,05,25,13,12,12.60
2010,05,25,13,13,12.60
2010,05,25,13,14,12.60
2010,05,25,13,15,12.60
2010,05,25,13,16,12.60
2010,05,25,13,17,12.60
2010,05,25,13,18,12.60
2010,05,25,13,19,12.60
2010,05,25,13,20,12.60
2010,05,25,13,21,12.70
2010,05,25,13,22,12.70
2010,05,25,13,23,12.80
2010,05,25,13,24,12.80
2010,05,25,13,25,12.80
2010,05,25,13,26,12.80
2010,05,25,13,27,12.80
2010,05,25,13,28,12.80
2010,05,25,13,29,12.80
2010,05,25,13,30,12.80
2010,05,25,13,31,12.90
2010,05,25,13,32,12.90
2010,05,25,13,33,12.90
2010,05,25,13,34,12.90
2010,05,25,13,35,12.90
2010,05,25,13,36,12.90
2010,05,25,13,37,12.90
2010,05,25,13,38,13.00
2010,05,25,13,39,13.10
2010,05,25,13,40,13.10
2010,05,25,13,41,13.10
2010,05,25,13,42,13.10
2010,05,25,13,43,13.10
2010,05,25,13,44,13.10
2010,05,25,13,45,13.10
2010,05,25,13,46,13.10
2010,05,25,13,47,13.10
2010,05,25,13,48,13.10
2010,05,25,13,49,13.20
2010,05,25,13,50,13.20
2010,05,25,13,51,13.20
2010,05,25,13,52,13.20
2010,05,25,13,53,13.20
2010,05,25,13,54,13.20
2010,05,25,13,55,13.20
2010,05,25,13,56,13.20
2010,05,25,13,57,13.20
2010,05,25,13,58,13.20
2010,05,25,13,59,13.20
2010,05,25,14,00,13.20
2010,05,25,14,01,13.20
2010,05,25,14,02,13.20
2010,05,25,14,03,13.20
2010,05,25,14,04,13.20
2010,05,25,14,05,13.20
2010,05,25,14,06,13.30
2010,05,25,14,07,13.30
2010,05,25,14,08,13.30
2010,05,25,14,09,13.30
2010,05,25,14,10,13.30
2010,05,25,14,11,13.30
2010,05,25,14,12,13.30
2010,05,25,14,13,13.30
2010,05,25,14,14,13.40
2010,05,25,14,15,13.40
2010,05,25,14,16,13.50
2010,05,25,14,17,13.50
2010,05,25,14,18,13.50
2010,05,25,14,19,13.60
2010,05,25,14,20,13.60
2010,05,25,14,21,13.60
2010,05,25,14,22,13.70
2010,05,25,14,23,13.70
2010,05,25,14,24,13.70
2010,05,25,14,25,13.70
2010,05,25,14,26,13.70
2010,05,25,14,27,13.70
2010,05,25,14,28,13.80
2010,05,25,14,29,13.80
2010,05,25,14,30,13.80
2010,05,25,14,31,13.80
2010,05,25,14,32,13.80
2010,05,25,14,33,13.90
2010,05,25,14,34,13.90
2010,05,25,14,35,13.90
2010,05,25,14,36,13.90
2010,05,25,14,37,13.90
2010,05,25,14,38,13.90
2010,05,25,14,39,13.90
2010,05,25,14,40,13.90
2010,05,25,14,41,13.90
2010,05,25,14,42,13.90
2010,05,25,14,43,13.90
2010,05,25,14,44,13.80
2010,05,25,14,45,13.80
2010,05,25,14,46,13.80
2010,05,25,14,47,13.80
2010,05,25,14,48,13.80
2010,05,25,14,49,13.80
2010,05,25,14,50,13.90
2010,05,25,14,51,13.90
2010,05,25,14,52,13.90
2010,05,25,14,53,14.00
2010,05,25,14,54,14.00
2010,05,25,14,55,14.00
2010,05,25,14,56,14.10
2010,05,25,14,57,14.10
2010,05,25,14,58,14.10
2010,05,25,14,59,14.10
2010,05,25,15,00,14.10
2010,05,25,15,01,14.10
2010,05,25,15,02,14.10
2010,05,25,15,03,14.00
2010,05,25,15,04,14.00
2010,05,25,15,05,14.00
2010,05,25,15,06,14.00
2010,05,25,15,07,14.00
2010,05,25,15,08,14.00
2010,05,25,15,09,14.00
2010,05,25,15,10,14.10
2010,05,25,15,11,14.10
2010,05,25,15,12,14.00
2010,05,25,15,13,14.10
2010,05,25,15,14,14.10
2010,05,25,15,15,14.10
2010,05,25,15,16,14.10
2010,05,25,15,17,14.10
2010,05,25,15,18,14.20
2010,05,25,15,19,14.20
2010,05,25,15,20,14.20
2010,05,25,15,21,14.20
2010,05,25,15,22,14.30
2010,05,25,15,23,14.30
2010,05,25,15,24,14.30
2010,05,25,15,25,14.40
2010,05,25,15,26,14.40
2010,05,25,15,27,14.50
2010,05,25,15,28,14.60
2010,05,25,15,29,14.60
2010,05,25,15,30,14.70
2010,05,25,15,31,14.80
2010,05,25,15,32,14.80
2010,05,25,15,33,14.90
2010,05,25,15,34,14.90
2010,05,25,15,35,15.00
2010,05,25,15,36,15.00
2010,05,25,15,37,15.00
2010,05,25,15,38,15.00
2010,05,25,15,39,15.00
2010,05,25,15,40,15.00
2010,05,25,15,41,14.90
2010,05,25,15,42,14.90
2010,05,25,15,43,14.80
2010,05,25,15,44,14.80
2010,05,25,15,45,14.70
2010,05,25,15,46,14.70
2010,05,25,15,47,14.70
2010,05,25,15,48,14.70
2010,05,25,15,49,14.70
2010,05,25,15,50,14.80
2010,05,25,15,51,14.80
2010,05,25,15,52,14.90
2010,05,25,15,53,15.00
2010,05,25,15,54,14.90
2010,05,25,15,55,14.90
2010,05,25,15,56,14.90
2010,05,25,15,57,14.90
2010,05,25,15,58,14.90
2010,05,25,15,59,14.90
2010,05,25,16,00,14.90
2010,05,25,16,01,14.90
2010,05,25,16,02,15.00
2010,05,25,16,03,15.00
2010,05,25,16,04,15.00
2010,05,25,16,05,15.00
2010,05,25,16,06,15.10
2010,05,25,16,07,15.20
2010,05,25,16,08,15.20
2010,05,25,16,09,15.30
2010,05,25,16,10,15.40
2010,05,25,16,11,15.40
2010,05,25,16,12,15.40
2010,05,25,16,13,15.50
2010,05,25,16,14,15.50
2010,05,25,16,15,15.50
2010,05,25,16,16,15.50
2010,05,25,16,17,15.50
2010,05,25,16,18,15.40
2010,05,25,16,19,15.30
2010,05,25,16,20,15.30
2010,05,25,16,21,15.20
2010,05,25,16,22,15.20
2010,05,25,16,23,15.20
2010,05,25,16,24,15.20
2010,05,25,16,25,15.20
2010,05,25,16,26,15.10
2010,05,25,16,27,15.10
2010,05,25,16,28,15.00
2010,05,25,16,29,15.00
2010,05,25,16,30,15.00
2010,05,25,16,31,15.00
2010,05,25,16,32,15.00
2010,05,25,16,33,15.00
2010,05,25,16,34,15.00
2010,05,25,16,35,15.00
2010,05,25,16,36,15.00
2010,05,25,16,37,15.00
2010,05,25,16,38,15.00
2010,05,25,16,39,15.00
2010,05,25,16,40,15.00
2010,05,25,16,41,15.00
2010,05,25,16,42,15.00
2010,05,25,16,43,14.90
2010,05,25,16,44,14.80
2010,05,25,16,45,14.80
2010,05,25,16,46,14.70
2010,05,25,16,47,14.70
2010,05,25,16,48,14.70
2010,05,25,16,49,14.70
2010,05,25,16,50,14.70
2010,05,25,16,51,14.70
2010,05,25,16,52,14.70
2010,05,25,16,53,14.60
2010,05,25,16,54,14.50
2010,05,25,16,55,14.40
2010,05,25,16,56,14.40
2010,05,25,16,57,14.40
2010,05,25,16,58,14.40
2010,05,25,16,59,14.40
2010,05,25,17,00,14.40
2010,05,25,17,01,14.50
2010,05,25,17,02,14.50
2010,05,25,17,03,14.50
2010,05,25,17,04,14.60
2010,05,25,17,05,14.60
2010,05,25,17,06,14.60
2010,05,25,17,07,14.60
2010,05,25,17,08,14.60
2010,05,25,17,09,14.60
2010,05,25,17,10,14.70
2010,05,25,17,11,14.70
2010,05,25,17,12,14.70
2010,05,25,17,13,14.70
2010,05,25,17,14,14.70
2010,05,25,17,15,14.70
2010,05,25,17,16,14.70
2010,05,25,17,17,14.70
2010,05,25,17,18,14.70
2010,05,25,17,19,14.80
2010,05,25,17,20,14.80
2010,05,25,17,21,14.90
2010,05,25,17,22,15.00
2010,05,25,17,23,15.00
2010,05,25,17,24,15.00
2010,05,25,17,25,15.00
2010,05,25,17,26,15.00
2010,05,25,17,27,15.00
2010,05,25,17,28,14.90
2010,05,25,17,29,14.90
2010,05,25,17,30,14.90
2010,05,25,17,31,14.90
2010,05,25,17,32,14.90
2010,05,25,17,33,14.90
2010,05,25,17,34,14.90
2010,05,25,17,35,14.90
2010,05,25,17,36,14.80
2010,05,25,17,37,14.80
2010,05,25,17,38,14.80
2010,05,25,17,39,14.80
2010,05,25,17,40,14.80
2010,05,25,17,41,14.70
2010,05,25,17,42,14.70
2010,05,25,17,43,14.70
2010,05,25,17,44,14.70
2010,05,25,17,45,14.70
2010,05,25,17,46,14.70
2010,05,25,17,47,14.70
2010,05,25,17,48,14.70
2010,05,25,17,49,14.70